Location: Izdebno
(52.6670°N, 16.2170°E)
Time: 04:46:55
(UTC+02:00)

Transit 4A - Pass Details

Date: 26 February 2024
Orbit: 871 x 972 km, 66.8° (Epoch: 22 April)

Event Time Altitude Azimuth Distance (km) Brightness Sun altitude
Rises 03:17:25 0° 253° (WSW) 3,585 - -32.0°
Reaches altitude 10° 03:20:12 10° 262° (W) 2,627 - -31.6°
Maximum altitude 03:25:46 36° 328° (NNW) 1,418 - -30.9°
Exits shadow 03:26:24 35° 342° (NNW) 1,438 8.9 -30.8°
Drops below altitude 10° 03:31:14 10° 34° (NE) 2,573 10.9 -30.2°
Sets 03:33:56 0° 43° (NE) 3,502 11.9 -29.8°
